CZ-3B DEB, 40815

Orbit data source: Space-Track

CZ-3B DEB, 40815 is space debris originally from a launch on Sat, 04 Sep 2010 UTC launched from the Xichang Space Center, China (XSC). Debris objects in space refer to the collection of defunct objects orbiting the Earth. Examples of debris include non-operational satellites, rocket bodies, and fragments generated from explosions, collisions, or faulty payload assembly.

Loading next visibility...
CZ-3B DEB details
Identifier
40815, 2010-042Y
Orbit
Molniya
Last TLE update8 months ago
Origin
Flag of CNCASC (CN / PRC)
ManufacturerCALT
MissionSpacecraft
Bus & MotorUnknown
MassUnknown
Launch date (UTC)
2010-09-04 (14 years ago)
Launch vehicleUnknown
Launch site
Xichang Space Center, China (XSC)
Object type
Payload
Rocket body
Debris
Shape & HBRUnknown
Radar Cross SectionMedium (>0.1 m² and <1 m²)

Expand to show TLE details & history

TLE from 8 months ago
0 CZ-3B DEB
1 40815U 10042Y   24095.66399041 -.00000341  00000-0 -10163-1 0  9995
2 40815  26.9312 347.5512 7356719 218.1909  54.8488  1.90986264 71558
Epoch: 2024-04-04T15:56Z
Definitive object data (Epoch: 2024-04-04T15:56:08.771Z)
Latitude0.00012°
Longitude-84.92546°
Altitude23,486.198 km
Speed3.488 km/s
True Right ascension23h 10m 16s
True Declination0° 00' 00"
Sunlit
Object was in daylight at TLE epoch
Visualization TLE readout
Latitude13.95635°
Longitude2.54809°
Altitude40,898.5 km
Speed1.53 km/s
Apparent Right ascension04h 45m 36s
Apparent Declination9° 55' 22"
Sunlit
Object is in daylight
Visualization observer readout
Local Sidereal Time07:11:34
Azimuth237.307° WSW
Elevation45.887°
Doppler factor1
Orbital elements
Apogee altitude41,256.725 km
Perigee altitude876.248 km
Semi-major axis27,444.623 km
Eccentricity0.7356719
Inclination26.9312°
RAAN347.5512°
Arg. of periapsis218.1909°
True anomaly141.72449°
Mean anomaly54.8488°
Eccentric anomaly96.7109°
Mean motion0.47737 °/min
BSTAR-0.010163
Orbital period754.13 mins
Loading maneuver chart data...
Loading historical data...
Loading historical data...
Loading historical data...
Loading historical data...
Loading historical data...
Loading historical data...
Loading historical data...

CZ-3B DEB Visibility forecast

Observer location: undefined°, undefined

Span
Click to sort rows by Start time (UTC) header in descending order
Start Az.
Max El. time (UTC)
Max El. Az.
Max El.
End time (UTC)
End Az.
232 mins2024-12-04 09:17:18.825Z237.29° WSW2024-12-04 09:17:18.825Z237.29° WSW35.673°2024-12-04 13:09:18.825Z246.476° WSW
317 mins2024-12-05 04:00:18.825Z263.995° W2024-12-05 05:40:18.825Z231.868° WSW41.79°2024-12-05 09:17:18.825Z248.466° W
|